K1YMI Weather Reports


time (UTC)temp
C
wind
direction
speed
KPH
gust
KPH
rain 1hr
cm
rain 24hr
cm
rain mn
cm
humidity
%
barometer
mb
20260506192516 -3 261 12.9 19.3 0.00 0.00 0.00
20260506191515 -4 260 11.3 16.1 0.00 0.00 0.00
20260506190515 -5 263 9.7 14.5 0.00 0.00 0.00
20260506185515 -5 257 9.7 12.9 0.00 0.00 0.00
20260506184515 -5 252 11.3 16.1 0.00 0.00 0.00
20260506183515 -6 257 9.7 16.1 0.00 0.00 0.00
20260506182515 -6 265 6.4 11.3 0.00 0.00 0.00
20260506181516 -6 265 6.4 11.3 0.00 0.00 0.00
20260506180515 -6 269 8.0 12.9 0.00 0.00 0.00
20260506175516 -7 267 8.0 11.3 0.00 0.00 0.00
20260506174515 -7 267 4.8 11.3 0.00 0.00 0.00
20260506173515 -7 272 6.4 12.9 0.00 0.00 0.00
20260506172515 -7 263 8.0 12.9 0.00 0.00 0.00
20260506171516 -7 260 9.7 16.1 0.00 0.00 0.00
20260506170535 -7 256 9.7 12.9 0.00 0.00 0.00
20260506165536 -7 256 8.0 11.3 0.00 0.00 0.00
20260506164515 -7 260 6.4 11.3 0.00 0.00 0.00
20260506163515 -7 267 6.4 9.7 0.00 0.00 0.00
20260506162516 -7 264 9.7 16.1 0.00 0.00 0.00
20260506161515 -7 267 8.0 14.5 0.00 0.00 0.00
20260506160516 -7 273 8.0 14.5 0.00 0.00 0.00
20260506155515 -7 266 9.7 17.7 0.00 0.00 0.00
20260506154515 -5 267 8.0 14.5 0.00 0.00 0.00
20260506153515 -3 269 8.0 16.1 0.00 0.00 0.00
20260506152515 -3 0.0 0.0 0.00 0.00 0.00
20260506151515 -3 0.0 0.0 0.00 0.00 0.00
20260506150515 -3 61 1.6 4.8 0.00 0.00 0.00
20260506145515 -3 161 1.6 6.4 0.00 0.00 0.00
20260506144515 -3 114 1.6 6.4 0.00 0.00 0.00
20260506143555 -3 110 1.6 6.4 0.00 0.00 0.00
20260506142515 -3 73 4.8 9.7 0.00 0.00 0.00
20260506141515 -3 66 4.8 8.0 0.00 0.00 0.00
20260506140515 -4 33 0.0 3.2 0.00 0.00 0.00
20260506135535 -4 72 0.0 4.8 0.00 0.00 0.00
20260506134535 -4 95 3.2 6.4 0.00 0.00 0.00
20260506133515 -4 113 1.6 6.4 0.00 0.00 0.00
20260506132516 -3 74 1.6 6.4 0.00 0.00 0.00
20260506131515 -3 101 1.6 4.8 0.00 0.00 0.00
20260506130515 -3 131 0.0 1.6 0.00 0.00 0.00
20260506125515 -3 64 0.0 3.2 0.00 0.00 0.00
20260506124515 -3 0.0 0.0 0.00 0.00 0.00
20260506123515 -3 0.0 0.0 0.00 0.00 0.00
20260506122515 -3 54 0.0 3.2 0.00 0.00 0.00
20260506121515 -3 264 0.0 0.0 0.00 0.00 0.00
20260506120515 -3 248 0.0 1.6 0.00 0.00 0.00
20260506115515 -4 170 0.0 1.6 0.00 0.00 0.00
20260506114515 -4 0.0 0.0 0.00 0.00 0.00
20260506113515 -4 243 0.0 3.2 0.00 0.00 0.00
20260506112515 -4 249 1.6 4.8 0.00 0.00 0.00
20260506111536 -4 239 3.2 4.8 0.00 0.00 0.00
20260506110515 -4 0.0 0.0 0.00 0.00 0.00
20260506105535 -4 0.0 0.0 0.00 0.00 0.00
20260506104515 -4 241 4.8 11.3 0.00 0.00 0.00
20260506103535 -4 224 0.0 4.8 0.00 0.00 0.00
20260506102516 -4 242 0.0 4.8 0.00 0.00 0.00
20260506101516 -4 0.0 0.0 0.00 0.00 0.00
20260506100515 -4 331 4.8 9.7 0.00 0.00 0.00
20260506095516 -4 259 1.6 4.8 0.00 0.00 0.00
20260506094515 -4 0.0 0.0 0.00 0.00 0.00
20260506093515 -4 268 4.8 8.0 0.00 0.00 0.00
20260506092535 -4 256 4.8 9.7 0.00 0.00 0.00
20260506091515 -4 255 9.7 14.5 0.00 0.00 0.00
20260506090515 -4 249 4.8 9.7 0.00 0.00 0.00
20260506085516 -3 265 4.8 8.0 0.00 0.00 0.00
20260506084535 -3 0.0 0.0 0.00 0.00 0.00
20260506083515 -3 0.0 0.0 0.00 0.00 0.00
20260506082515 -3 0.0 0.0 0.00 0.00 0.00
20260506081515 -3 0.0 0.0 0.00 0.00 0.00
20260506080515 -3 236 1.6 3.2 0.00 0.00 0.00
20260506073515 -3 219 0.0 3.2 0.00 0.00 0.00
20260506072515 -3 207 1.6 4.8 0.00 0.00 0.00
20260506071515 -3 253 3.2 6.4 0.00 0.00 0.00
20260506070515 -3 247 1.6 3.2 0.00 0.00 0.00
20260506061515 -3 267 6.4 11.3 0.00 0.00 0.00
20260506060535 -3 264 4.8 8.0 0.00 0.00 0.00
20260506050515 -3 255 4.8 8.0 0.00 0.00 0.00 100 1005.8
20260506044515 -2 257 4.8 9.7 0.00 0.00 0.00 100 1006.1
20260506043515 -2 270 4.8 8.0 0.00 0.00 0.00 100 1006.2
20260506042515 -2 272 3.2 6.4 0.00 0.00 0.00 100 1006.3
20260506041515 -2 273 1.6 3.2 0.00 0.00 0.00 100 1006.2
20260506040515 -2 266 3.2 8.0 0.00 0.00 0.00 100 1006.3
20260506035515 -2 267 4.8 6.4 0.00 0.00 0.00 100 1006.4
20260506034515 -2 266 6.4 12.9 0.00 0.00 0.00 100 1006.4
20260506033515 -2 260 8.0 14.5 0.00 0.00 0.00 100 1006.4
20260506032515 -2 270 3.2 9.7 0.00 0.00 0.00 100 1006.2
20260506031515 -2 244 1.6 4.8 0.00 0.00 0.00 100 1006.5
20260506030515 -2 311 0.0 0.0 0.00 0.00 0.00 100 1006.0
20260506025515 -2 249 1.6 3.2 0.00 0.00 0.00 100 1006.2
20260506024515 -2 244 3.2 4.8 0.00 0.00 0.00 100 1006.2
20260506023516 -2 265 4.8 8.0 0.00 0.00 0.00 100 1006.3
20260506022516 -2 265 3.2 6.4 0.00 0.00 0.00 94 1006.4
20260506021515 -2 277 0.0 1.6 0.00 0.00 0.00 60 1006.2
20260506020515 -2 264 1.6 6.4 0.00 0.00 0.00 11 1005.8
20260506015515 -2 251 4.8 12.9 0.00 0.00 0.00 100 1005.9
20260506014515 -2 259 8.0 12.9 0.00 0.00 0.00 100 1005.5
20260506013536 -2 260 11.3 19.3 0.00 0.00 0.00 4 1005.6
20260506012515 -2 255 12.9 20.9 0.00 0.00 0.00 32 1005.8
20260506011515 -2 256 12.9 25.7 0.00 0.00 0.00 83 1005.6
20260506010515 -2 250 11.3 19.3 0.00 0.00 0.00 82 1005.7
20260506005535 -1 256 14.5 24.1 0.00 0.00 0.00 78 1005.0
20260506004535 -1 264 12.9 27.4 0.00 0.00 0.00 100 1005.0
20260506003515 -1 271 11.3 20.9 0.00 0.00 0.00
20260506002536 -1 262 11.3 17.7 0.00 0.00 0.00
20260506001515 -1 257 11.3 19.3 0.00 0.00 0.00
20260506000515 -1 260 4.8 6.4 0.00 0.00 0.00
20260505235515 -1 279 1.6 6.4 0.00 0.00 0.00
20260505234515 -1 171 1.6 3.2 0.00 0.00 0.00
20260505233515 -1 0.0 0.0 0.00 0.00 0.00
20260505232515 0 0.0 0.0 0.00 0.00 0.00 100 1003.2
20260505231515 0 0.0 0.0 0.00 0.00 0.00 100 1003.0
20260505230535 0 0.0 0.0 0.00 0.00 0.00 100 1003.0
20260505225536 0 0.0 0.0 0.00 0.00 0.00 100 1003.1
20260505224515 0 79 1.6 6.4 0.00 0.00 0.00 55 1003.2
20260505223515 0 117 0.0 3.2 0.00 0.00 0.00 91 1003.1
20260505222515 0 87 3.2 6.4 0.00 0.00 0.00 100 1002.8
20260505221515 0 79 3.2 8.0 0.00 0.00 0.00 100 1002.7
20260505220535 0 0.0 0.0 0.00 0.00 0.00 100 1002.6
20260505215556 0 0.0 0.0 0.00 0.00 0.00 100 1002.3
20260505214556 0 0.0 0.0 0.00 0.00 0.00 100 1002.5
20260505213535 0 0.0 0.0 0.00 0.00 0.00 100 1002.8
20260505212515 0 97 0.0 3.2 0.00 0.00 0.00 100 1003.0
20260505211516 0 0.0 0.0 0.00 0.00 0.00 100 1003.1
20260505210515 0 0.0 0.0 0.00 0.00 0.00 100 1003.0
20260505205515 0 0.0 0.0 0.00 0.00 0.00 100 1002.8
20260505204515 0 289 1.6 6.4 0.00 0.00 0.00 100 1002.6
20260505203515 0 287 3.2 6.4 0.00 0.00 0.00 100 1002.8
20260505202535 -1 269 4.8 9.7 0.00 0.00 0.00 100 1003.1
20260505201536 -1 275 6.4 14.5 0.00 0.00 0.00 100 1003.2
20260505200515 -1 259 12.9 24.1 0.00 0.00 0.00 100 1003.0
20260505195515 -1 271 12.9 24.1 0.00 0.00 0.00 37 1002.7
20260505194515 0 265 20.9 49.9 0.00 0.00 0.00 100 1002.7
20260505193515 0 246 8.0 11.3 0.00 0.00 0.00 100 1001.1